Orbital Elements at Epoch 2459000.5 (2020-May-31.0) TDB
Reference: JPL 11 (heliocentric ecliptic J2000)
Element | Value | Uncertainty (1-sigma) | Units |
e | .07655245399098469 | 1.0336e-07 | |
a | 2.434700836328405 | 2.3579e-08 | au |
q | 2.248318512573563 | 2.6324e-07 | au |
i | 1.608519452312378 | 8.9765e-06 | deg |
node | 315.1272214288273 | 0.0002518 | deg |
peri | 69.47664028674176 | 0.00025705 | deg |
M | 36.16318611445501 | 4.927e-05 | deg |
tp | 2458861.110191966761 (2020-Jan-12.61019197) | 0.00018974 | TDB |
period | 1387.608125377758 3.80 | 2.0157e-05 5.519e-08 | d yr |
n | .2594392418262863 | 3.7688e-09 | deg/d |
Q | 2.621083160083247 | 2.5384e-08 | au |
|
| | Orbit Determination Parameters
Additional Information
|